When you browse on this site, cookies collect data to enhance your experience and personalize the content and advertising you see.
Visit our Privacy Policy to learn more. By continuing to use the site, you agree to this use of cookies and data.
EN

Hourly Weather Brusilov

Today, 15 July, Wednesday

Time Temperature Precipitation Wind Pressure Humidity
00:00 +12°C° 0 mm 3 mps 744 mmHg 92%
01:00 +12°C° 0 mm 3 mps 744 mmHg 94%
02:00 +11°C° 0 mm 3 mps 744 mmHg 96%
03:00 +11°C° 0 mm 3 mps 744 mmHg 96%
04:00 +11°C° 0 mm 3 mps 744 mmHg 96%
05:00 +11°C° 0 mm 3 mps 744 mmHg 96%
06:00 +13°C° 0 mm 4 mps 744 mmHg 90%
07:00 +14°C° 0 mm 4 mps 744 mmHg 84%
08:00 +16°C° 0 mm 5 mps 744 mmHg 78%
09:00 +17°C° 0 mm 5 mps 744 mmHg 72%
10:00 +20°C° 0 mm 5 mps 744 mmHg 67%
11:00 +21°C° 0 mm 5 mps 744 mmHg 61%
12:00 +21°C° 0.1 mm 5 mps 744 mmHg 60%
13:00 +22°C° 0.1 mm 4 mps 744 mmHg 59%
14:00 +22°C° 0.1 mm 4 mps 744 mmHg 58%
15:00 +22°C° 0.1 mm 4 mps 744 mmHg 59%
16:00 +22°C° 0.1 mm 4 mps 744 mmHg 61%
17:00 +22°C° 0.1 mm 3 mps 744 mmHg 63%
18:00 +20°C° 0.1 mm 3 mps 744 mmHg 68%
19:00 +19°C° 0.1 mm 2 mps 744 mmHg 74%
20:00 +17°C° 0.1 mm 2 mps 745 mmHg 80%
21:00 +16°C° 0 mm 2 mps 745 mmHg 82%
22:00 +16°C° 0 mm 2 mps 745 mmHg 85%
23:00 +15°C° 0 mm 2 mps 745 mmHg 87%

Tomorrow, 16 July, Thursday

Time Temperature Precipitation Wind Pressure Humidity
00:00 +14°C° 0 mm 2 mps 745 mmHg 88%
01:00 +14°C° 0 mm 2 mps 745 mmHg 89%
02:00 +13°C° 0 mm 2 mps 745 mmHg 91%
03:00 +13°C° 0 mm 2 mps 745 mmHg 91%
04:00 +13°C° 0 mm 2 mps 744 mmHg 91%
05:00 +13°C° 0 mm 1 mps 744 mmHg 91%
06:00 +15°C° 0 mm 1 mps 745 mmHg 85%
07:00 +18°C° 0 mm 1 mps 745 mmHg 78%
08:00 +20°C° 0 mm 1 mps 745 mmHg 72%
09:00 +22°C° 0.1 mm 1 mps 745 mmHg 68%
10:00 +23°C° 0.1 mm 1 mps 745 mmHg 63%
11:00 +24°C° 0.1 mm 1 mps 745 mmHg 59%
12:00 +25°C° 0.5 mm 1 mps 745 mmHg 59%
13:00 +25°C° 0.5 mm 1 mps 744 mmHg 58%
14:00 +25°C° 0.5 mm 1 mps 744 mmHg 58%
15:00 +25°C° 0.4 mm 1 mps 744 mmHg 58%
16:00 +25°C° 0.4 mm 1 mps 744 mmHg 58%
17:00 +25°C° 0.4 mm 1 mps 743 mmHg 59%
18:00 +23°C° 0.1 mm 1 mps 743 mmHg 65%
19:00 +22°C° 0.1 mm 1 mps 743 mmHg 72%
20:00 +20°C° 0.1 mm 1 mps 744 mmHg 78%
21:00 +19°C° 0 mm 1 mps 744 mmHg 81%
22:00 +19°C° 0 mm 1 mps 743 mmHg 84%
23:00 +18°C° 0 mm 1 mps 743 mmHg 86%

Day after tomorrow, 17 July, Friday

Time Temperature Precipitation Wind Pressure Humidity
00:00 +16°C° 0 mm 1 mps 744 mmHg 87%
01:00 +16°C° 0 mm 1 mps 744 mmHg 88%
02:00 +16°C° 0 mm 1 mps 744 mmHg 89%
03:00 +16°C° 0 mm 1 mps 744 mmHg 89%
04:00 +16°C° 0 mm 1 mps 744 mmHg 89%
05:00 +16°C° 0 mm 1 mps 743 mmHg 89%
06:00 +18°C° 0 mm 1 mps 744 mmHg 83%
07:00 +20°C° 0 mm 1 mps 744 mmHg 77%
08:00 +22°C° 0 mm 1 mps 745 mmHg 71%
09:00 +24°C° 0.3 mm 2 mps 745 mmHg 66%
10:00 +25°C° 0.3 mm 2 mps 744 mmHg 61%
11:00 +26°C° 0.3 mm 3 mps 744 mmHg 56%
12:00 +27°C° 0 mm 3 mps 744 mmHg 54%
13:00 +27°C° 0 mm 3 mps 744 mmHg 52%
14:00 +28°C° 0 mm 3 mps 744 mmHg 50%
15:00 +27°C° 0.4 mm 3 mps 744 mmHg 55%
16:00 +27°C° 0.4 mm 2 mps 744 mmHg 60%
17:00 +26°C° 0.4 mm 2 mps 744 mmHg 64%
18:00 +25°C° 0.1 mm 2 mps 744 mmHg 68%
19:00 +23°C° 0.1 mm 1 mps 744 mmHg 71%
20:00 +22°C° 0.1 mm 1 mps 744 mmHg 74%
21:00 +21°C° 0 mm 1 mps 745 mmHg 77%
22:00 +19°C° 0 mm 2 mps 745 mmHg 80%
23:00 +19°C° 0 mm 2 mps 745 mmHg 83%

18 July, Saturday

Time Temperature Precipitation Wind Pressure Humidity
00:00 +18°C° 0.1 mm 2 mps 745 mmHg 83%
01:00 +18°C° 0.1 mm 2 mps 745 mmHg 84%
02:00 +18°C° 0.1 mm 2 mps 745 mmHg 85%
03:00 +17°C° 0.1 mm 2 mps 745 mmHg 84%
04:00 +17°C° 0.1 mm 2 mps 746 mmHg 84%
05:00 +17°C° 0.1 mm 2 mps 746 mmHg 84%
06:00 +18°C° 0 mm 2 mps 746 mmHg 80%
07:00 +20°C° 0 mm 2 mps 746 mmHg 76%
08:00 +23°C° 0 mm 2 mps 746 mmHg 71%
09:00 +24°C° 0 mm 2 mps 746 mmHg 66%
10:00 +26°C° 0 mm 3 mps 747 mmHg 60%
11:00 +28°C° 0 mm 3 mps 747 mmHg 54%
12:00 +28°C° 0 mm 3 mps 747 mmHg 51%
13:00 +28°C° 0 mm 3 mps 747 mmHg 49%
14:00 +29°C° 0 mm 2 mps 746 mmHg 47%
15:00 +29°C° 0 mm 2 mps 746 mmHg 49%
16:00 +28°C° 0 mm 2 mps 746 mmHg 51%
17:00 +28°C° 0 mm 2 mps 746 mmHg 54%
18:00 +26°C° 0 mm 2 mps 746 mmHg 59%
19:00 +25°C° 0 mm 2 mps 746 mmHg 64%
20:00 +23°C° 0 mm 2 mps 747 mmHg 70%
21:00 +21°C° 0 mm 2 mps 747 mmHg 72%
22:00 +20°C° 0 mm 2 mps 747 mmHg 75%
23:00 +19°C° 0 mm 2 mps 747 mmHg 77%

19 July, Sunday

Time Temperature Precipitation Wind Pressure Humidity
00:00 +19°C° 0 mm 2 mps 747 mmHg 78%
01:00 +19°C° 0 mm 2 mps 747 mmHg 78%
02:00 +18°C° 0 mm 2 mps 747 mmHg 78%
03:00 +19°C° 0 mm 1 mps 747 mmHg 78%
04:00 +19°C° 0 mm 1 mps 747 mmHg 79%
05:00 +19°C° 0 mm 1 mps 746 mmHg 79%
06:00 +20°C° 0 mm 1 mps 747 mmHg 74%
07:00 +22°C° 0 mm 1 mps 747 mmHg 70%
08:00 +23°C° 0 mm 2 mps 747 mmHg 66%
09:00 +25°C° 0 mm 2 mps 747 mmHg 62%
10:00 +26°C° 0 mm 2 mps 747 mmHg 58%
11:00 +27°C° 0 mm 2 mps 747 mmHg 54%
12:00 +27°C° 0.1 mm 2 mps 746 mmHg 53%
13:00 +28°C° 0.1 mm 2 mps 746 mmHg 52%
14:00 +28°C° 0.1 mm 3 mps 746 mmHg 51%
15:00 +28°C° 0.1 mm 3 mps 746 mmHg 55%
16:00 +27°C° 0.1 mm 3 mps 745 mmHg 59%
17:00 +27°C° 0.1 mm 3 mps 745 mmHg 62%
18:00 +25°C° 0.3 mm 3 mps 745 mmHg 70%
19:00 +23°C° 0.3 mm 2 mps 745 mmHg 77%
20:00 +20°C° 0.3 mm 2 mps 745 mmHg 85%
21:00 +20°C° 0.2 mm 2 mps 745 mmHg 87%
22:00 +19°C° 0.2 mm 2 mps 745 mmHg 89%
23:00 +18°C° 0.2 mm 2 mps 745 mmHg 92%

20 July, Monday

Time Temperature Precipitation Wind Pressure Humidity
00:00 +18°C° 0.1 mm 2 mps 745 mmHg 92%
01:00 +18°C° 0.1 mm 2 mps 744 mmHg 92%
02:00 +17°C° 0.1 mm 2 mps 744 mmHg 92%
03:00 +17°C° 0 mm 2 mps 744 mmHg 92%
04:00 +17°C° 0 mm 2 mps 744 mmHg 93%
05:00 +18°C° 0 mm 1 mps 744 mmHg 93%
06:00 +20°C° 0 mm 1 mps 744 mmHg 88%
07:00 +21°C° 0 mm 1 mps 744 mmHg 83%
08:00 +23°C° 0 mm 1 mps 743 mmHg 77%
09:00 +23°C° 1.7 mm 2 mps 743 mmHg 74%
10:00 +24°C° 1.7 mm 2 mps 743 mmHg 71%
11:00 +25°C° 1.7 mm 2 mps 743 mmHg 68%
12:00 +25°C° 1.4 mm 2 mps 743 mmHg 72%
13:00 +24°C° 1.4 mm 2 mps 743 mmHg 75%
14:00 +23°C° 1.4 mm 2 mps 742 mmHg 79%
15:00 +23°C° 0.5 mm 2 mps 742 mmHg 81%
16:00 +21°C° 0.5 mm 2 mps 742 mmHg 83%
17:00 +21°C° 0.5 mm 2 mps 742 mmHg 85%
18:00 +20°C° 0.1 mm 2 mps 742 mmHg 87%
19:00 +20°C° 0.1 mm 2 mps 741 mmHg 88%
20:00 +19°C° 0.1 mm 2 mps 741 mmHg 90%
21:00 +19°C° 0 mm 2 mps 741 mmHg 91%
22:00 +18°C° 0 mm 2 mps 741 mmHg 92%
23:00 +18°C° 0 mm 2 mps 742 mmHg 93%
Show more